Regional Weather Roundup
Issued by NWS

Home | Current Version | Previous Version | Graphics & Text | Print | Product List | Glossary On
Versions: 1 2 3 4 5 6 7 8 9 10 11 12 13 14 15 16 17 18 19 20 21 22 23 24 25 26 27
000
ASUS45 KSLC 280710
RWRUT

UTAH REGIONAL WEATHER ROUNDUP
NATIONAL WEATHER SERVICE SALT LAKE CITY UT
100 AM MDT WED JUN 28 2017

UTZ001>011-023>025-280800-

NORTHERN UTAH

CITY           SKY/WX    TMP DP  RH WIND       PRES   REMARKS
BRIGHAM CITY   CLEAR     65  41  41 SW3       29.88R
HILL AFB       CLEAR     69  37  30 E14G21    29.90R
LOGAN          CLEAR     61  45  55 N3        29.89F
OGDEN          CLEAR     70  37  29 S7        29.87S
SALT LAKE CITY CLEAR     73  37  27 S6        29.86R
TOOELE VALLEY  CLEAR     64  36  34 S9        29.88S
WENDOVER         N/A     69  25  19 W3        29.88R
HEBER CITY     CLEAR     50  37  62 E3        29.98S
WEST JORDAN    CLEAR     67  43  42 NW3       29.90R

$$

UTZ011>015-024>027-280800-

CENTRAL/NORTHEAST UTAH

CITY           SKY/WX    TMP DP  RH WIND       PRES   REMARKS
PROVO AIRPORT  CLEAR     64  44  48 SE6       29.89R
MOAB/CANYONLAN PTCLDY    84  29  13 SW3       29.81R
DELTA          CLEAR     70  30  23 NE5       29.89S
PRICE          CLEAR     66  29  24 NW7       29.95S
ROOSEVELT      CLEAR     61  32  33 S6        29.95R
VERNAL         CLEAR     58  34  40 SW3       29.93S

$$

UTZ013>016-019>022-027-280800-

SOUTHERN UTAH

CITY           SKY/WX    TMP DP  RH WIND       PRES   REMARKS
BRYCE CANYON   CLEAR     60  21  22 W9        30.14F
CEDAR CITY     CLEAR     68  23  18 S7        29.97F
MILFORD        CLEAR     71  25  17 S7        29.91S
ST GEORGE      SUNNY     85  21   9 CALM      29.77R
HANKSVILLE     CLEAR     79  23  12 S5        29.86R
BLANDING       CLEAR     61  19  20 NW6       30.02F

$$

REGIONAL REPORTS     COLORADO/ARIZONA

CITY           SKY/WX    TMP DP  RH WIND       PRES   REMARKS
CRAIG, CO      CLEAR     55  30  38 SW3       30.03S
GRAND JUNCTION CLEAR     83  30  14 N9        29.87R
RIFLE, CO      PTCLDY    74  25  16 NW7       29.97R
MONTROSE, CO   CLEAR     64  21  19 S9        29.96R
CORTEZ, CO     CLEAR     56  25  30 NE3       30.00R
COLORADO CITY    N/A     59  25  27 E5        29.97S
PAGE, AZ       CLEAR     85  19   9 S6        29.87S
GRAND CANYON   CLEAR     51  15  23 E3        30.13S
KINGMAN, AZ    CLEAR     77  14   9 S7        29.86S
FLAGSTAFF, AZ  CLEAR     54  11  18 CALM      30.18S

$$

REGIONAL REPORTS    NEVADA/IDAHO/WYOMING

CITY           SKY/WX    TMP DP  RH WIND       PRES   REMARKS
LAS VEGAS, NV  CLEAR     92  18   6 SW8       29.71S
ELY, NY        CLEAR     58  10  15 NW6       30.04F
ELKO, NV       CLEAR     56  39  53 CALM      29.95S
POCATELLO, ID  CLEAR     58  48  69 E6        29.92F
BURLEY, ID     PTCLDY    57  50  77 SW5       29.86S
FORT BRIDGER,    N/A     56  30  37 S6        30.11F
EVANSTON, WY   CLEAR     58  31  35 CALM      30.08F
ROCK SPRINGS,  CLEAR     57  35  43 SE9       30.05F
KEMMERER, WY     N/A     55  30  38 CALM      30.10S

$$




USA.gov is the U.S. government's official web portal to all federal, state and local government web resources and services.